Regional Weather Roundup
Issued by NWS

Home | Current Version | Previous Version | Graphics & Text | Print | Product List | Glossary On
Versions: 1 2 3 4 5 6 7 8 9 10 11 12 13 14 15 16 17 18 19 20 21 22 23 24 25 26 27 28 29 30 31 32 33 34 35 36 37 38 39 40 41 42 43 44 45 46 47 48 49 50
000
ASUS43 KDTX 040701
RWRMI
MICHIGAN HOURLY REGIONAL WEATHER ROUNDUP
NATIONAL WEATHER SERVICE DETROIT/PONTIAC MI
300 AM EDT MON MAY 04 2015

NOTE: "FAIR" INDICATES FEW OR NO CLOUDS BELOW 12,000 FEET WITH NO
SIGNIFICANT WEATHER AND/OR OBSTRUCTION TO VISIBILITY.

MIZ047>049-052>055-059>063-066>070-074>076-081>083-040800-
SOUTHEAST LOWER MICHIGAN

CITY           SKY/WX    TMP DP  RH WIND       PRES   REMARKS
ADRIAN         MOCLDY    64  48  56 SW10      30.03F
ALMA           MOCLDY    64  47  55 S6        29.95F
ANN ARBOR      CLOUDY    62  48  60 S6        30.02F
BAD AXE        MOCLDY    63  46  52 S10       29.96F
CARO           MOCLDY    66  47  50 CALM      29.96F
DETROIT CITY   MOCLDY    66  47  50 SW10      30.02F
DETROIT        CLOUDY    65  48  54 S8        30.03F
FLINT          PTCLDY    68  46  45 S10       29.98F
GROSSE ILE     MOCLDY    61  52  72 S8        30.02F
HILLSDALE      MOCLDY    65  47  52 S6        30.02F
HOWELL         MOCLDY    67  45  45 S9        29.99F

CITY           SKY/WX    TMP DP  RH WIND       PRES   REMARKS
JACKSON        CLOUDY    68  46  45 SW10      30.01S
LAMBERTVILLE   CLOUDY    66  46  48 S7        30.04F
LANSING        CLOUDY    67  47  48 S9        29.98F
LAPEER         FAIR      66  45  46 S7        29.99F
MASON          CLOUDY    66  46  49 S3        29.99S
MONROE         CLOUDY    64  48  55 S6        30.02S
PONTIAC        MOCLDY    67  46  47 S8        30.00F
PORT HOPE        N/A     67  45  45 S8        29.93F
PORT HURON     MOCLDY    61  50  67 S6        30.02S
TRI CITIES     MOCLDY    68  47  46 S10       29.94F
MIDLAND        FAIR      67  47  48 S8        29.93F
TROY           MOCLDY    67  46  45 S5        30.03F
SAGINAW HB     PTCLDY    68  45  42 S13       29.95F
$$
MIZ043>046-050>051-056>058-064>065-071>073-077>080-040800-
SOUTHWEST LOWER MICHIGAN

CITY           SKY/WX    TMP DP  RH WIND       PRES   REMARKS
BATTLE CREEK   LGT RAIN  67  48  50 SW13      30.01R
BENTON HARBOR  CLOUDY    62  52  69 SE7       29.95F
BIG RAPIDS     MOCLDY    64  48  56 SW14G24   29.92F
COLDWATER      CLOUDY    66  44  45 SW8       30.01S
FREMONT        CLOUDY    61  54  77 S14G25    29.91F
HOLLAND        TSTM      60  55  83 SE12      29.95F
GRAND RAPIDS   LGT RAIN  60  55  83 S10       29.98R
IONIA          CLOUDY    68  47  46 W20G28    29.97R
KALAMAZOO      HVY RAIN  62  53  72 SW12      30.02R
LUDINGTON      RAIN      55  51  83 W12G23    29.96R
MARSHALL       CLOUDY    66  47  49 SW7       29.99S
MOUNT PLEASANT PTCLDY    63  47  55 S6        29.93F
MUSKEGON       CLOUDY    63  55  75 S16G22    29.90F
SOUTH HAVEN    CLOUDY    62  54  75 SE9       29.94F
$$
MIZ016>042-040800-
NORTHERN LOWER MICHIGAN

CITY           SKY/WX    TMP DP  RH WIND       PRES   REMARKS
ALPENA         MOCLDY    66  46  48 SW3       29.90S
BEAVER ISLAND  CLOUDY    53  51  94 S7        29.85F
BELLAIRE       CLOUDY    61  51  69 S5        29.89F
CADILLAC       MOCLDY    55  46  71 CALM      29.91F
CHARLEVOIX     CLOUDY    54  47  78 SE6       29.89F
FRANKFORT      CLOUDY    56  48  72 CALM      29.90S
GAYLORD        CLOUDY    62  48  60 N3        29.91F
GRAYLING       CLOUDY    56  47  71 CALM      29.93S
HARBOR SPRINGS CLOUDY    49  45  85 CALM      29.88F
HOUGHTON LAKE  MOCLDY    63  45  51 S3        29.92S
MANISTEE       CLOUDY    59  48  67 S3        29.92S
OSCODA         PTCLDY    57  47  68 SW6       29.91F
PELLSTON       CLOUDY    59  50  72 SW5       29.88F
ROGERS CITY    CLOUDY    55  51  86 CALM      29.91F
TRAVERSE CITY  CLOUDY    62  51  67 S3        29.89F
$$
MIZ007>008-015-040800-
EASTERN UPPER MICHIGAN

CITY           SKY/WX    TMP DP  RH WIND       PRES   REMARKS
KINROSS        CLOUDY    55  54  94 S3        29.85S
MACKINAC ISLAN CLOUDY    53  51  93 S10       29.85F
NEWBERRY       CLOUDY    53  52  98 SW10      29.84F
S. S. MARIE    LGT RAIN  58  56  93 SW8       29.86R
MUNISING         N/A     53  50  89 NW3       29.82F
$$
MIZ004>006-011>014-085-040800-
CENTRAL UPPER MICHIGAN

CITY           SKY/WX    TMP DP  RH WIND       PRES   REMARKS
MANISTIQUE     CLOUDY    46  45  96 CALM      29.83F FOG
ESCANABA       CLOUDY    55  52  88 S10       29.83S
MENOMINEE      CLOUDY    57  54  88 CALM      29.84F
SAWYER-GWINN   CLOUDY    55  52  90 N3        29.85S
$$
MIZ001>003-009>011-084-040800-
WESTERN UPPER MICHIGAN

CITY           SKY/WX    TMP DP  RH WIND       PRES   REMARKS
IRON MOUNTAIN  CLOUDY    55  51  86 NW7       29.87R
HOUGHTON       CLOUDY    51  34  52 NW6       29.89S
COPPER HARBOR    N/A     55  30  38 N9        29.86S
IRONWOOD       CLOUDY    48  45  87 SW5       29.93R
$$

ABBREVIATIONS USED IN REMARKS
   TC - TEMPERATURE IN CELSIUS
  WCI - WIND CHILL INDEX
   HX - HEAT INDEX
  VSB - VISIBILITY




USA.gov is the U.S. government's official web portal to all federal, state and local government web resources and services.